Wind_Speed
13 12 14 15 15 18 19 20 19 18 16 16 15 14 16 13 11 16 12 14 18 16 15 17 16 19 19 11 13 15 17 18 12 15 8 9 9 9 8 7 8 11 9 12 17 17 17 18 19 19 19 19 20 19 19 20 20 20 19 19 19 19 18 18 17 16 16 15 15 14 13 14 14 12 10 9 8 8 8 7 7 6 6 5 5 4
14 14 16 18 19 19 20 19 19 21 18 14 13 13 15 12 10 16 12 12 15 13 13 17 16 18 20 13 13 15 17 16 12 14 11 6 10 8 7 7 7 10 11 12 13 14 15 16 18 19 19 21 21 20 21 22 22 21 20 19 18 18 18 17 15 13 12 10 8 9 10 11 12 10 9 9 8 7 7 7 6 5 5 4 4 3
14 15 18 21 19 18 19 19 19 22 19 12 11 11 12 12 11 15 14 12 13 10 10 18 16 15 19 16 14 17 16 15 14 11 12 11 11 7 6 6 6 10 12 12 12 12 15 17 17 18 18 20 20 21 22 22 22 21 20 19 18 17 15 13 10 8 7 5 4 5 6 6 7 8 9 8 8 7 7 6 6 5 4 4 3 3
13 14 19 20 18 19 19 20 20 19 15 11 10 10 11 13 13 12 13 13 12 10 11 16 14 12 15 17 16 16 16 14 9 11 15 12 11 12 10 8 9 10 10 10 10 10 15 19 18 18 18 19 19 20 21 21 21 20 19 18 16 14 11 8 9 9 8 7 7 7 6 6 5 6 8 8 7 6 6 6 6 5 4 4 3 3
14 14 19 20 19 21 19 18 20 15 11 12 13 12 11 14 15 11 11 13 10 12 14 13 11 11 13 17 15 14 17 15 12 16 11 9 11 13 13 12 12 12 11 10 10 9 14 18 18 19 19 20 20 20 20 21 20 18 17 16 14 10 6 6 9 11 10 9 8 8 9 9 6 4 5 6 6 6 6 6 6 5 4 4 4 3
14 15 19 22 20 21 19 16 20 16 9 12 16 15 12 13 16 11 12 13 9 10 14 12 9 9 12 16 15 14 15 13 14 16 11 9 11 13 12 13 14 14 12 11 12 12 13 16 17 18 19 20 20 19 19 19 18 17 16 14 12 10 8 9 11 9 8 8 8 9 10 10 8 6 5 6 6 7 7 6 6 5 4 4 4 3
12 17 20 22 21 22 19 15 20 19 10 10 13 15 14 14 16 13 12 13 8 8 14 14 10 7 11 16 16 16 15 13 12 13 14 11 12 13 12 12 13 13 11 8 10 13 14 15 16 16 18 19 18 19 19 18 17 15 15 14 14 14 13 13 11 7 7 7 6 8 8 8 8 7 6 6 6 5 6 6 6 5 4 4 3 3
13 19 21 23 22 20 17 14 18 20 13 9 12 16 16 14 14 15 12 11 8 8 13 17 14 8 9 14 16 18 16 16 14 13 15 14 13 12 12 12 13 13 13 10 11 14 15 16 17 16 17 18 18 19 17 16 17 15 15 17 17 15 12 12 10 7 7 8 7 8 6 6 8 8 7 7 6 5 5 6 5 4 4 4 3 3
15 20 21 24 20 15 14 14 18 20 15 10 11 16 14 11 12 14 12 9 9 9 10 15 15 10 8 10 16 19 19 17 19 17 16 16 17 13 11 13 13 12 14 15 14 15 15 16 18 18 17 16 17 18 16 17 17 15 15 17 16 14 11 11 12 9 8 10 10 9 7 7 9 9 8 7 6 6 5 5 5 3 3 2 3 4
14 17 18 19 15 13 15 17 18 19 16 12 12 15 12 9 10 10 9 9 10 10 9 14 16 11 8 9 13 16 18 18 17 18 18 18 18 14 11 12 12 9 10 13 15 15 16 17 17 17 16 16 16 17 17 18 17 15 14 14 14 12 11 12 12 10 10 11 8 6 6 7 8 7 7 6 6 5 5 4 3 2 2 3 3 3
14 14 14 13 13 13 16 17 17 18 19 13 10 13 12 9 8 7 7 8 8 10 12 14 16 13 10 9 10 11 13 15 14 15 18 20 18 15 13 10 9 8 8 11 14 15 17 19 18 18 17 17 17 18 19 19 18 17 15 14 13 11 11 13 12 10 7 6 6 6 7 7 7 6 6 6 6 5 4 3 2 2 2 3 3 3
14 15 14 12 15 16 16 16 16 18 21 13 8 10 11 9 8 6 7 8 8 10 12 14 16 15 11 8 8 11 13 14 14 14 17 22 22 18 13 12 11 10 10 13 14 14 16 16 18 19 18 18 19 20 22 20 18 18 17 16 15 13 14 14 12 9 6 5 7 7 6 7 7 6 6 6 5 4 3 2 1 1 1 1 2 3
12 14 15 14 17 18 16 14 14 16 18 13 9 11 10 9 9 8 9 10 9 9 10 14 17 14 11 10 9 12 16 16 13 13 15 20 23 20 16 15 16 14 13 13 13 14 14 13 15 19 19 19 20 21 23 21 19 18 18 18 16 15 16 15 13 10 8 7 8 7 7 6 6 6 5 5 4 3 2 2 1 1 0 1 2 2
11 13 18 17 15 17 16 13 12 13 16 14 11 12 11 9 9 10 10 9 9 8 9 15 16 12 9 10 12 9 13 15 14 14 14 16 19 21 20 18 17 17 15 14 14 14 14 13 15 19 20 19 19 20 21 21 20 19 18 18 18 17 16 15 13 11 10 9 7 7 6 5 5 5 4 5 5 3 3 2 2 2 2 1 2 2
13 11 17 18 13 16 19 15 13 13 15 14 12 12 11 9 8 8 9 8 9 9 10 11 11 11 9 4 5 5 8 7 8 10 11 13 14 16 18 18 16 16 15 14 14 14 14 15 17 18 19 19 20 20 18 16 17 19 18 18 19 18 16 15 14 12 11 10 8 7 6 6 5 5 5 6 5 4 4 3 3 3 2 2 2 3
15 10 15 18 14 18 20 15 15 15 13 12 12 12 11 10 8 6 6 4 4 8 9 8 7 7 4 4 3 5 9 6 4 6 8 10 11 12 15 16 15 14 13 13 14 14 15 18 19 18 19 20 20 20 20 16 15 17 19 19 19 18 17 16 14 12 10 9 8 7 6 6 7 7 6 6 5 5 4 4 3 3 3 3 3 3
12 9 16 19 15 18 19 16 16 15 11 10 12 13 11 12 10 7 5 1 2 7 8 8 8 5 4 2 3 6 10 10 9 8 8 8 9 11 12 13 13 13 12 10 11 14 15 18 20 20 21 21 19 19 22 23 21 20 21 21 20 18 17 15 14 12 10 9 9 8 8 8 8 8 7 6 6 5 5 4 4 4 4 4 4 4
11 8 16 20 16 17 18 17 17 15 11 10 11 13 11 12 12 8 7 5 6 9 7 9 12 10 7 6 8 10 12 13 13 12 12 11 10 10 11 13 13 13 11 8 11 13 14 17 22 22 21 20 19 17 19 23 24 22 22 21 20 18 16 14 13 12 10 9 9 9 9 9 8 8 7 7 6 5 5 5 5 5 5 5 5 5
12 8 13 18 17 16 17 16 13 14 16 12 11 12 10 10 11 9 8 8 9 9 8 11 13 11 10 8 11 15 14 14 15 15 14 14 13 11 12 13 14 14 12 12 14 13 13 18 22 22 21 21 20 20 20 21 23 23 22 21 19 17 15 13 12 11 10 9 9 9 8 8 7 7 7 6 6 6 6 6 6 6 6 6 6 6
12 8 9 16 18 16 15 13 11 13 15 14 11 12 10 8 9 9 7 7 9 8 8 11 12 10 9 10 14 17 16 15 16 15 15 16 15 13 12 13 13 14 15 15 16 14 14 19 22 23 24 22 22 23 24 24 24 22 21 21 19 16 15 13 12 11 10 10 9 9 8 7 7 7 7 7 7 7 8 7 7 7 6 6 6 6
10 8 8 13 17 15 12 12 13 13 13 12 11 12 12 9 8 9 8 7 8 8 7 8 10 7 4 6 13 16 15 16 16 15 14 13 14 14 12 13 14 15 17 16 16 16 17 21 23 23 24 24 23 23 23 24 24 22 21 20 18 16 15 13 12 11 11 10 10 9 8 8 8 7 7 7 8 8 8 8 7 7 6 7 7 7
9 8 10 11 13 13 13 14 16 15 16 14 10 10 12 10 9 8 9 10 9 8 8 7 9 5 3 2 8 11 13 15 15 15 14 12 14 13 11 14 15 15 16 17 17 18 18 20 23 23 23 23 23 23 23 24 23 21 20 19 18 16 15 13 12 11 10 10 10 10 9 9 8 8 8 8 8 8 8 8 7 7 7 7 7 7
8 7 10 11 11 13 15 17 16 16 18 16 11 10 11 11 11 9 9 10 9 9 8 7 8 3 4 2 3 4 9 14 14 14 14 11 11 12 13 15 16 16 17 17 18 15 13 17 22 24 23 21 21 23 23 23 23 21 21 19 18 17 15 13 12 11 10 10 10 10 10 10 9 9 9 9 9 8 8 8 8 7 8 8 8 8
9 7 9 10 10 11 14 17 16 16 17 15 12 12 12 11 13 11 9 8 8 9 9 7 6 4 3 1 2 1 5 11 12 12 12 11 12 14 15 15 16 17 17 17 17 14 13 18 22 22 22 21 22 23 21 22 23 21 19 18 18 18 16 15 13 11 10 10 10 10 11 11 10 10 10 10 9 9 9 8 8 8 8 9 9 9
8 9 10 10 10 11 13 14 14 15 15 12 12 15 16 14 15 13 10 9 9 11 11 8 5 5 3 2 3 3 4 9 9 9 12 14 14 13 13 14 16 16 16 17 17 17 16 18 19 20 21 22 22 22 20 20 21 20 19 18 18 17 17 16 14 12 11 11 11 11 11 11 11 10 10 10 10 9 9 9 9 9 9 9 9 9
8 9 10 11 12 12 13 13 12 13 12 10 13 18 19 18 17 13 9 9 9 10 12 10 5 4 3 5 8 8 7 9 9 10 14 13 14 14 13 15 15 14 15 16 17 17 16 14 16 19 21 21 21 21 20 19 19 19 18 18 17 16 17 16 14 12 11 11 11 11 11 11 11 11 10 10 9 9 9 10 10 10 10 10 10 10
7 9 11 13 12 11 12 12 11 12 13 13 16 19 20 19 18 14 9 9 9 9 10 11 7 6 5 8 11 12 10 10 11 12 13 13 14 14 13 13 13 12 14 16 15 15 14 14 17 19 20 21 21 20 19 19 18 19 18 18 17 17 18 17 15 14 13 12 11 11 11 11 11 11 10 10 10 9 10 10 11 11 10 10 10 11
6 10 15 15 14 14 14 13 13 14 16 16 17 19 20 21 20 15 11 11 11 9 9 11 12 9 7 8 12 13 12 11 12 12 11 12 13 12 11 12 13 12 13 15 16 15 15 16 18 19 20 21 21 20 20 19 18 18 17 17 17 16 17 17 16 15 14 12 12 11 11 11 11 11 11 10 10 10 10 11 11 11 11 11 11 11
6 11 14 15 15 15 15 15 16 17 17 17 17 17 19 20 20 17 13 13 12 9 8 9 13 13 10 9 11 11 11 12 13 12 10 12 14 14 13 14 14 13 13 14 15 15 16 17 19 20 21 20 20 21 21 19 18 17 16 17 17 16 16 16 15 15 13 12 12 11 11 11 11 12 11 11 11 11 11 11 12 11 11 11 11 11
7 9 13 14 13 14 16 16 16 16 16 17 17 17 17 17 18 17 15 15 14 12 10 8 10 11 10 10 10 10 11 11 12 12 12 14 16 16 16 16 15 15 15 14 13 14 17 18 19 22 23 22 22 21 20 18 17 16 16 17 17 16 16 16 15 15 13 12 12 12 12 12 12 12 12 11 11 11 11 11 11 11 11 11 11 11
9 7 13 14 9 11 14 13 12 13 15 16 17 18 17 16 17 17 15 14 14 13 12 10 8 7 6 9 11 11 11 11 12 13 13 14 16 17 17 17 16 16 17 16 15 14 15 15 17 21 23 22 22 21 19 18 17 15 15 16 17 17 17 16 15 14 13 13 12 12 12 12 12 12 12 12 12 11 11 11 10 11 11 11 11 11
9 7 12 12 8 9 11 10 11 13 15 16 17 19 19 17 16 15 13 13 13 14 13 10 8 6 6 10 12 12 12 13 14 14 12 13 15 17 18 17 17 17 17 16 16 14 12 13 15 18 21 21 22 20 19 18 17 16 16 16 17 17 17 16 15 14 14 13 13 13 12 12 12 12 12 12 11 11 11 10 10 11 11 11 11 11
9 7 10 11 9 9 11 12 12 10 12 13 13 16 19 18 16 14 14 15 15 14 11 9 8 6 10 11 11 12 14 13 14 13 12 13 14 16 18 18 17 18 18 18 17 15 14 16 18 20 21 20 20 20 19 18 17 17 17 17 18 18 17 17 16 15 14 13 13 13 12 12 12 12 12 11 11 11 10 10 10 10 10 10 11 11
9 8 8 10 9 9 12 13 10 9 10 6 4 8 13 15 17 17 15 15 16 13 10 9 9 7 11 13 12 12 13 13 13 13 13 13 13 14 17 19 18 18 19 18 18 17 18 19 19 21 21 19 19 20 19 18 18 18 18 18 18 18 17 16 16 15 14 13 13 12 12 12 12 12 12 11 11 11 10 10 10 10 10 10 10 11
10 8 8 8 8 7 9 10 9 9 7 2 3 1 3 7 13 16 16 17 17 16 14 13 10 7 7 9 10 11 12 12 12 12 13 14 14 15 17 18 18 18 17 18 18 18 19 21 20 20 20 19 19 19 19 18 18 19 19 18 18 17 17 16 16 15 15 14 13 12 12 12 12 12 12 11 11 11 11 11 10 10 10 10 10 11
10 8 7 8 7 6 7 9 8 5 4 3 2 1 1 4 9 12 15 17 18 17 16 14 11 8 6 6 9 10 11 12 11 10 13 15 15 16 17 17 18 16 15 17 18 19 21 24 24 23 21 20 19 18 18 18 18 18 19 18 17 17 16 16 16 15 14 13 13 13 13 12 13 13 12 12 12 11 11 11 11 11 11 11 11 11
10 8 6 8 8 6 7 9 6 4 5 4 2 2 5 8 9 9 9 11 13 13 14 14 13 11 9 8 10 12 11 11 9 9 12 15 16 18 19 19 19 17 18 20 21 21 24 26 25 24 22 21 19 18 18 18 18 18 18 17 16 16 16 16 16 15 14 13 14 13 13 13 13 13 13 12 12 11 11 11 11 11 10 10 11 10
11 9 7 7 7 5 6 8 7 6 6 4 3 4 5 7 9 11 9 7 10 13 13 14 14 13 12 11 13 15 12 10 8 9 12 15 17 18 19 19 21 22 22 23 25 25 25 25 25 24 22 20 19 18 18 19 19 18 17 16 16 16 16 16 16 15 14 14 14 14 14 13 14 13 13 13 12 12 12 11 11 11 10 9 10 10
12 10 7 6 7 5 5 7 8 5 2 3 4 6 6 5 7 10 9 8 13 17 16 16 14 13 14 15 16 14 11 8 7 9 13 16 18 18 19 19 22 23 24 26 28 28 27 26 25 23 21 20 19 19 18 19 19 18 16 16 16 16 16 16 16 15 15 15 15 14 14 13 13 13 13 13 12 12 12 11 10 10 9 9 10 10
11 9 8 8 8 7 7 7 5 2 3 5 5 5 6 6 7 10 10 7 11 16 16 15 14 14 15 16 15 13 10 6 6 11 16 16 16 17 19 21 21 23 24 27 29 29 28 27 25 22 21 20 19 19 19 18 18 17 16 15 16 17 16 16 16 16 16 16 16 15 14 13 14 14 13 13 13 12 11 10 10 9 9 9 10 10
9 8 8 8 8 8 8 7 4 2 4 6 6 6 6 6 7 10 7 1 2 10 14 15 14 16 17 15 13 10 6 1 8 17 19 16 16 17 19 24 26 26 26 27 28 28 28 26 24 22 21 20 19 19 19 18 18 18 16 16 17 17 17 17 17 18 17 17 16 16 15 14 14 14 13 13 12 11 10 10 10 10 10 10 10 10
8 8 8 8 8 7 6 7 6 3 3 4 6 7 7 7 6 5 2 4 5 5 13 15 13 14 16 14 10 8 4 7 15 21 21 19 19 18 19 24 27 27 27 28 27 27 27 26 24 22 21 20 20 19 19 19 19 19 18 18 18 18 18 18 18 18 18 17 17 17 16 15 14 13 12 12 11 11 10 10 10 11 11 11 10 10
7 8 8 8 7 6 6 7 7 3 5 8 8 6 4 4 1 2 1 2 4 3 9 12 12 12 14 12 9 7 8 13 19 21 20 21 21 20 20 22 24 26 27 28 27 27 26 25 24 22 21 21 20 19 19 20 20 19 19 19 19 19 19 18 18 18 17 17 17 17 16 15 14 12 11 11 11 11 11 11 11 11 10 10 10 10
7 7 6 6 7 7 6 6 4 1 6 9 7 3 3 3 3 4 2 2 2 2 5 7 10 12 12 11 10 9 12 16 19 20 20 21 21 20 20 21 24 27 29 28 28 28 27 25 24 23 22 21 19 19 19 20 20 20 20 20 19 19 18 18 17 18 18 18 17 16 15 15 13 12 11 11 11 11 11 10 10 9 9 9 9 9
3 2 1 3 4 4 2 3 3 4 6 6 2 3 5 6 5 4 4 4 2 1 2 4 8 11 11 9 9 11 14 17 19 20 20 20 21 21 21 23 26 28 29 29 29 27 26 25 25 23 22 21 20 19 19 19 21 22 21 19 19 19 19 19 18 19 18 18 17 16 15 14 13 12 11 11 10 11 10 10 10 9 9 8 8 8
2 3 1 2 1 2 4 5 5 5 6 5 4 5 4 3 2 3 4 4 2 1 2 3 6 9 11 11 10 11 14 18 19 19 19 20 21 22 23 24 26 28 29 28 28 27 26 25 25 23 23 21 20 19 19 20 21 22 20 19 19 19 19 19 19 19 18 17 16 15 15 14 13 12 11 10 10 10 9 9 9 9 9 9 9 8
3 2 3 4 3 3 2 3 5 6 6 5 4 4 4 3 2 1 3 4 2 2 2 3 6 9 10 10 10 11 15 19 20 19 18 19 21 22 22 22 24 27 28 27 27 27 26 25 24 24 24 22 20 20 20 20 21 21 20 20 19 19 19 20 19 19 18 17 16 15 14 14 13 12 11 11 10 10 9 9 9 9 9 8 8 8
2 2 5 6 4 2 2 3 5 5 4 3 2 2 3 4 3 2 2 2 2 3 3 3 6 9 9 9 11 13 15 18 20 19 18 18 20 21 20 21 24 26 27 27 28 27 25 24 24 24 23 22 20 20 21 20 20 21 20 20 20 20 19 19 19 18 18 17 15 15 14 13 12 11 11 11 12 12 11 10 10 11 12 12 11 9
2 4 4 4 2 2 3 3 2 3 4 4 3 2 4 4 4 3 3 1 1 4 4 3 6 10 10 10 12 13 15 17 18 19 20 20 19 19 19 22 25 26 26 27 26 25 24 24 25 24 23 22 21 21 21 21 21 21 20 20 20 20 19 19 18 18 17 16 15 15 14 12 11 11 11 12 14 15 15 14 13 14 14 14 13 11
5 3 1 2 3 3 3 1 2 1 2 5 6 4 3 3 4 4 4 2 2 4 4 5 8 10 10 11 12 12 15 16 17 19 20 19 19 21 23 26 26 26 27 27 25 25 25 25 25 25 24 22 22 21 21 21 21 21 20 20 20 20 19 19 18 17 16 15 15 14 13 13 13 13 13 14 15 16 17 17 16 16 16 15 14 12
3 4 4 2 1 2 3 2 2 3 3 4 5 5 4 4 4 4 4 3 3 4 4 6 8 9 10 11 11 13 15 16 17 19 19 18 21 25 27 27 27 27 27 27 25 25 26 25 25 25 24 23 22 22 21 21 21 20 20 20 19 19 19 18 17 16 15 15 14 13 13 14 14 14 15 15 16 16 16 17 17 17 17 16 15 14
Wind_Direction
191 198 205 207 207 203 206 209 215 227 224 217 209 206 221 218 199 212 205 168 185 204 202 206 208 217 233 207 182 194 193 215 189 134 192 212 140 122 128 154 148 128 130 126 128 136 138 144 147 149 152 147 146 150 155 161 168 171 170 173 176 176 177 175 175 178 182 185 184 180 179 179 176 169 168 172 173 168 164 165 171 171 170 173 178 189
195 207 208 204 208 203 204 210 213 224 231 231 219 204 217 220 200 208 196 158 186 208 204 208 212 213 224 215 194 201 196 206 194 154 177 172 107 115 142 152 147 127 129 129 136 145 141 147 150 150 153 150 150 155 160 164 169 172 172 175 179 178 179 179 176 176 181 190 182 176 191 188 174 168 165 166 169 165 159 161 167 166 166 170 171 183
200 213 209 200 206 206 204 208 211 220 228 240 232 208 209 211 206 204 177 161 193 210 205 205 214 217 218 220 207 206 202 201 204 160 120 103 109 136 145 149 150 129 134 145 157 159 146 148 154 154 156 155 156 159 163 168 168 171 174 176 181 180 180 180 172 164 173 206 187 169 201 196 175 177 166 159 163 164 161 162 165 164 163 165 165 177
201 207 205 199 201 207 205 203 208 218 221 229 227 210 208 201 205 205 168 165 191 207 217 204 208 222 215 219 216 208 205 197 174 113 108 124 148 159 157 164 162 141 143 153 161 168 154 152 159 161 158 157 160 162 166 169 167 171 175 176 179 177 174 167 165 169 167 180 183 174 178 170 181 192 160 149 157 160 163 164 163 162 161 161 163 175
206 198 198 199 198 206 206 198 204 212 210 218 222 216 212 200 208 213 167 163 186 206 226 217 205 219 215 213 212 206 208 193 133 102 118 159 167 166 165 166 164 154 155 156 158 173 165 160 164 163 160 160 162 166 169 169 168 169 170 174 173 167 168 154 161 177 174 168 170 171 170 152 154 201 164 150 171 176 169 161 156 152 151 151 153 166
208 193 193 198 197 202 204 196 201 206 201 210 220 225 225 208 206 207 171 171 191 201 212 223 216 207 212 215 209 204 204 182 135 121 135 173 182 176 168 165 167 162 156 157 164 173 175 167 164 165 164 162 162 167 171 169 166 164 164 165 155 153 173 169 168 180 176 166 156 160 164 141 144 200 196 168 183 182 163 145 139 136 135 139 142 150
207 194 191 198 195 195 202 202 200 201 205 207 208 221 234 226 206 195 183 184 199 202 193 208 227 210 206 213 208 208 196 158 144 151 149 168 188 180 171 170 170 164 152 161 176 173 176 171 164 169 169 164 163 166 169 166 160 155 150 150 149 156 166 165 168 174 161 160 161 167 168 151 164 197 188 166 168 158 140 130 128 126 122 117 116 118
201 196 189 196 196 192 200 203 193 193 209 212 192 205 228 238 214 190 190 197 203 210 191 198 222 233 217 205 196 209 204 159 153 173 161 165 188 185 174 170 173 172 158 167 185 174 176 175 167 170 172 168 164 161 161 155 149 143 143 157 161 154 148 151 160 166 163 174 191 194 187 180 188 185 168 163 147 125 125 125 118 115 111 96 72 55
195 201 191 193 194 192 199 196 187 191 211 223 188 194 217 235 219 195 194 209 211 215 198 191 208 233 238 206 190 204 213 185 165 175 178 178 189 188 175 169 177 179 163 166 178 172 174 176 169 169 171 167 159 156 152 145 143 141 149 162 159 142 140 150 152 155 183 198 195 189 187 196 193 174 163 157 132 118 118 111 98 87 81 63 36 18
194 204 189 186 190 190 196 196 191 190 207 224 189 183 201 214 215 205 204 214 214 221 215 191 195 219 238 215 197 199 211 207 183 177 186 187 186 185 177 175 177 172 163 170 175 171 172 172 167 166 163 158 152 150 149 146 147 146 146 149 146 143 150 151 145 151 180 192 173 157 177 190 178 156 145 134 121 116 109 103 94 68 26 17 17 5
189 189 177 184 201 197 195 199 196 191 204 217 187 178 192 203 208 211 219 223 220 225 221 202 195 207 230 221 202 198 204 210 199 183 179 173 177 185 180 173 174 174 174 179 178 171 168 167 163 161 157 155 152 150 150 148 146 144 142 141 142 144 142 138 138 142 155 153 130 147 177 173 154 138 133 128 124 121 115 116 102 49 14 8 4 354
184 186 183 192 210 207 197 197 191 191 203 206 178 184 192 195 205 207 214 222 227 224 213 209 205 204 221 226 196 191 200 205 203 195 179 166 171 182 179 170 174 182 183 182 179 167 160 160 159 159 158 157 155 152 150 146 142 141 142 142 143 142 136 131 124 121 122 126 134 149 149 135 125 119 125 127 126 123 105 89 70 20 21 60 10 351
179 194 194 196 211 210 197 190 184 188 202 198 179 195 196 183 195 201 202 209 222 227 208 205 213 211 217 232 220 192 189 200 205 200 189 176 173 171 173 183 183 181 182 179 172 160 154 155 158 160 159 155 153 151 148 143 140 140 141 140 138 133 127 121 117 122 131 135 138 129 114 114 107 98 107 112 112 118 88 70 81 30 28 93 22 353
176 192 196 198 206 204 198 190 181 184 197 195 184 196 198 184 190 197 200 206 211 223 219 206 211 217 208 224 241 209 176 191 204 200 192 186 181 168 169 188 186 173 173 173 165 157 153 154 157 158 152 148 150 149 144 142 141 139 136 133 127 120 116 118 124 130 123 111 106 96 91 99 97 90 91 84 85 103 98 91 97 65 41 40 17 356
181 187 194 199 192 190 202 200 181 183 195 196 195 204 208 199 194 196 201 206 204 208 215 210 211 215 198 203 254 196 145 162 199 199 189 185 189 176 168 178 173 161 165 167 161 155 151 149 150 149 144 147 152 145 137 140 139 133 129 127 122 118 120 122 120 115 105 94 88 84 85 96 101 99 93 81 81 91 87 87 95 77 52 31 20 9
192 191 186 194 191 188 200 200 184 189 195 193 201 212 215 209 195 192 209 222 232 215 202 204 219 212 177 60 42 139 134 136 185 201 190 181 189 184 170 167 161 158 162 161 155 152 148 145 144 144 145 150 150 139 136 140 136 130 128 124 122 121 121 121 116 111 106 102 102 101 99 103 105 104 103 96 95 95 84 78 79 70 56 40 32 21
194 192 176 183 194 190 193 196 193 198 194 183 202 214 213 216 208 190 201 227 296 231 197 190 210 196 153 140 163 165 164 171 186 198 196 189 191 185 168 160 158 157 158 159 154 147 144 145 148 152 154 153 146 137 138 141 138 135 130 123 121 121 120 118 115 113 109 106 103 101 100 101 102 103 102 99 98 96 88 80 71 67 60 48 43 35
192 183 169 178 190 186 190 202 204 208 205 185 197 208 204 218 223 208 202 196 207 221 197 185 201 200 195 190 175 182 185 182 187 196 198 196 195 185 168 162 161 152 144 146 141 131 137 151 158 159 156 149 142 136 133 132 130 128 125 123 123 123 121 117 112 109 107 103 97 95 97 97 96 96 96 96 96 93 91 85 77 73 65 53 48 41
196 181 163 182 192 180 187 206 207 205 214 212 201 202 202 211 216 209 207 202 199 214 209 194 199 210 215 190 167 181 192 189 191 197 199 195 190 185 174 169 161 143 131 134 136 133 142 153 156 153 146 142 142 138 128 123 122 120 121 124 123 120 118 114 111 108 105 102 100 99 98 95 92 91 92 94 94 94 93 87 82 78 69 60 52 43
200 189 163 188 192 177 182 203 202 190 207 224 211 201 210 214 210 207 209 205 199 207 215 205 201 213 218 186 169 181 190 192 196 196 197 194 186 184 178 166 154 143 139 144 148 147 144 145 147 144 140 141 142 137 129 126 124 121 119 119 119 118 117 113 109 107 104 103 104 100 94 91 88 87 89 92 95 95 90 86 84 80 72 65 55 47
198 187 164 183 186 182 187 198 201 186 188 212 209 198 203 205 211 214 207 210 211 205 206 213 213 211 204 172 173 180 184 189 196 194 194 191 181 180 176 159 149 147 148 150 153 150 145 146 145 138 135 137 137 134 130 129 128 123 118 120 122 120 116 112 108 106 106 106 105 101 95 90 88 88 89 90 91 89 85 81 80 78 75 68 59 52
195 182 170 180 185 193 193 189 198 194 189 201 209 203 203 199 202 209 205 209 219 214 201 208 218 204 78 132 174 175 179 183 190 191 193 191 179 169 156 146 143 145 148 151 152 150 150 151 144 136 137 140 139 135 130 130 133 130 127 127 125 120 116 112 109 106 107 107 106 103 98 93 92 92 91 89 87 85 82 77 74 75 76 69 60 56
187 180 178 186 190 198 192 186 198 205 199 201 207 211 212 205 202 207 207 203 212 225 216 211 217 183 68 95 135 150 186 181 179 188 188 177 159 143 134 136 138 142 148 151 150 144 139 141 142 141 142 141 139 135 130 132 135 133 133 131 126 122 119 115 111 108 108 108 107 107 103 100 99 96 92 89 85 84 81 77 73 71 71 69 62 56
180 183 183 183 185 194 191 186 199 213 210 204 202 211 216 208 204 215 224 210 212 224 218 216 212 164 109 120 82 18 200 167 165 179 162 130 124 132 137 137 140 145 147 144 140 134 131 139 146 147 140 137 137 134 130 133 134 132 133 130 126 125 123 118 114 112 112 111 110 111 108 105 102 96 91 87 84 84 84 80 77 71 69 69 63 58
182 188 181 179 176 181 188 187 195 209 214 207 201 209 217 212 204 212 228 223 219 221 215 218 207 150 130 164 161 189 156 132 148 154 126 119 130 138 141 142 145 146 142 136 135 138 144 148 150 146 139 137 136 132 130 131 130 130 131 128 125 123 119 117 117 116 118 118 115 113 109 105 101 94 89 87 84 84 83 81 79 74 70 69 65 61
187 192 184 187 182 178 187 189 187 194 204 206 203 206 212 216 209 204 216 224 220 216 214 218 202 133 142 177 174 176 151 140 154 132 113 125 139 139 146 149 146 142 139 141 144 147 149 148 143 140 137 138 136 133 134 133 129 130 130 128 126 118 113 115 119 122 123 122 118 113 107 103 98 93 89 88 86 83 82 81 80 76 71 68 67 63
194 204 198 199 196 192 194 189 181 188 198 202 204 204 206 213 214 207 206 220 222 214 216 221 202 146 153 184 178 172 164 161 154 128 117 130 137 141 149 143 137 139 142 145 148 146 142 138 136 135 134 136 135 134 133 133 134 135 132 130 126 117 112 114 118 121 122 123 120 113 108 102 98 95 92 89 87 84 82 81 79 77 74 71 70 67
206 210 200 201 208 209 197 185 186 197 203 203 203 205 203 206 214 215 210 214 219 219 219 216 204 180 163 183 182 171 168 166 150 132 129 136 139 142 136 126 129 139 145 148 147 142 136 133 133 133 134 136 135 133 134 135 138 138 133 129 124 117 116 119 122 123 123 124 119 113 109 105 100 99 95 92 90 86 83 82 78 77 77 74 72 69
216 206 197 201 210 210 197 190 197 199 202 206 206 207 206 204 209 214 216 215 214 218 222 212 208 199 171 165 173 166 167 169 150 138 140 141 140 139 135 136 142 144 145 146 143 139 136 134 134 135 135 134 131 131 133 136 139 138 131 126 122 120 122 126 128 129 127 124 120 117 113 107 103 101 98 95 92 88 85 82 79 79 78 75 73 69
223 197 194 206 212 213 207 201 200 197 199 205 206 206 208 207 207 208 215 219 212 214 233 237 222 208 174 158 162 150 151 156 142 139 150 150 146 147 149 152 150 147 145 142 137 136 136 136 135 134 135 134 132 133 135 138 140 138 131 124 122 123 126 129 134 135 130 125 123 120 113 107 103 101 98 96 94 91 88 84 81 80 78 76 73 70
218 187 190 202 209 217 216 200 189 200 208 206 204 206 206 207 208 204 206 216 212 211 228 238 226 210 165 142 141 132 135 145 145 150 157 154 154 156 156 154 150 147 144 138 131 128 131 133 130 131 135 137 137 138 139 141 141 137 129 123 122 126 129 133 140 139 131 127 125 120 112 108 105 101 99 99 96 93 90 86 83 82 78 76 73 70
215 202 189 194 201 208 208 197 192 204 214 212 208 205 203 205 209 204 199 204 206 208 214 215 206 186 131 124 131 135 145 152 154 159 160 158 163 161 155 152 148 145 139 129 122 119 121 125 126 132 138 139 138 139 139 139 138 133 129 125 126 130 132 134 136 135 131 130 126 119 113 110 107 104 102 100 97 94 91 88 86 83 80 77 74 72
203 204 188 192 203 196 192 204 208 205 212 217 214 207 204 204 205 204 203 200 202 209 208 202 207 177 140 144 152 153 157 158 158 163 165 164 165 158 153 151 144 139 134 128 128 130 131 130 131 136 140 139 139 140 138 137 134 131 130 129 130 134 135 134 133 131 130 128 123 117 113 112 109 106 105 102 99 97 94 92 90 86 83 81 77 74
187 200 192 189 204 195 185 197 208 208 210 210 211 217 213 209 205 204 205 200 200 208 207 209 224 192 154 166 176 165 160 159 157 163 169 168 161 155 155 150 139 134 133 135 140 142 137 133 132 136 140 142 142 138 135 133 131 130 131 132 134 136 135 133 130 127 125 124 122 118 114 113 110 107 107 104 101 99 96 95 93 89 87 85 80 76
185 201 193 184 203 191 171 187 205 212 208 133 65 263 233 225 217 209 207 205 200 204 210 212 214 194 167 173 171 157 151 148 151 162 165 162 160 159 156 146 139 137 138 142 147 144 138 134 133 138 142 140 136 133 132 131 130 131 133 134 136 136 134 131 126 121 121 122 122 119 116 114 112 109 109 106 103 101 98 96 95 91 89 86 81 78
191 204 193 190 200 169 160 197 209 187 148 116 87 80 120 213 221 213 211 208 199 198 205 210 204 184 163 143 133 137 142 142 147 156 156 158 162 161 154 145 144 144 143 145 146 144 142 141 139 142 142 138 133 133 133 133 132 133 134 135 137 133 130 128 121 117 119 121 121 120 118 117 115 112 111 108 106 103 100 99 97 93 91 87 83 80
194 208 199 196 202 186 182 201 196 156 162 170 166 185 194 203 204 208 215 207 198 198 200 206 203 178 150 132 128 131 136 139 145 153 158 163 162 155 150 151 151 146 143 147 147 145 145 143 141 141 141 139 137 136 137 137 136 135 135 135 134 130 126 122 118 117 120 118 117 118 119 119 117 114 113 110 108 106 104 104 100 95 94 91 89 87
194 209 207 197 207 218 210 202 202 207 201 180 145 161 198 218 203 201 216 215 205 207 206 207 202 173 148 142 137 135 140 150 159 163 165 166 161 153 151 153 151 147 146 149 147 143 142 141 141 142 141 138 137 138 140 140 139 137 137 135 132 128 124 120 117 118 119 116 115 117 118 118 117 115 113 111 110 110 107 105 101 98 97 96 95 95
200 213 219 209 207 220 226 211 210 218 188 138 139 146 168 204 189 185 210 221 202 201 207 210 200 171 155 153 146 145 159 173 172 170 170 168 162 154 149 148 148 149 151 151 147 144 143 142 143 143 140 137 139 141 143 144 143 139 135 130 126 121 117 115 115 116 116 115 115 116 116 115 114 114 115 113 112 111 109 108 107 106 106 103 98 96
206 211 217 220 213 209 219 220 212 200 116 130 136 138 158 176 173 179 202 216 191 188 198 207 195 172 163 160 154 161 185 194 169 165 166 160 148 140 142 148 150 149 145 144 144 143 143 144 144 142 140 140 142 141 143 143 138 131 126 119 114 110 109 110 111 111 112 113 113 113 112 112 114 115 115 113 111 110 110 109 109 108 105 102 99 95
202 208 212 221 218 207 215 227 215 139 108 129 136 131 143 160 177 189 201 271 198 185 190 199 192 174 169 168 165 175 201 168 133 151 157 148 134 135 143 146 146 144 139 137 142 146 146 144 142 141 142 143 143 143 144 140 131 126 124 118 112 111 112 111 111 112 114 116 117 115 113 112 114 114 114 113 113 112 112 110 108 106 101 99 98 96
191 199 205 215 219 212 212 228 225 175 133 158 152 135 149 171 179 185 211 338 324 219 191 192 187 172 168 171 174 175 148 109 128 144 151 144 136 139 143 142 142 143 140 138 143 149 149 144 141 142 144 145 145 145 144 139 132 128 126 121 118 120 121 120 120 121 123 122 120 117 116 114 114 114 114 116 116 113 110 107 106 104 102 101 101 98
187 194 200 202 209 215 210 218 230 212 153 167 162 147 173 195 143 49 353 333 328 260 199 186 177 170 169 170 172 163 137 131 136 139 143 145 141 141 143 143 144 144 142 140 144 148 150 146 143 143 145 146 146 145 141 136 131 128 127 125 125 128 128 128 129 128 126 124 119 117 117 117 117 117 117 118 117 114 112 110 108 106 106 107 106 102
200 206 210 196 198 216 217 206 214 105 134 163 171 142 129 122 67 21 3 49 40 254 211 177 163 167 172 170 164 149 136 140 142 138 142 147 146 145 147 146 145 147 147 148 148 147 146 146 145 145 146 146 144 142 139 135 131 128 128 128 130 133 132 131 131 127 124 121 120 120 121 121 121 119 116 115 114 111 109 108 107 107 107 107 105 102
191 183 235 231 211 204 155 119 103 96 121 142 119 67 99 110 86 40 32 48 62 164 191 171 161 163 167 164 154 140 135 141 147 147 148 149 146 146 148 147 148 150 150 149 148 144 143 145 146 145 144 143 141 138 136 134 131 129 129 131 134 135 132 130 129 126 124 123 124 125 125 123 120 117 115 114 111 108 108 108 106 103 100 97 93 92
114 112 147 274 245 137 113 108 111 117 125 123 93 73 90 120 108 55 50 61 68 116 165 176 170 169 169 165 158 150 144 146 150 149 147 147 146 146 146 148 152 152 149 146 145 143 144 145 144 141 139 137 136 135 134 134 133 131 131 134 136 135 133 131 128 126 126 127 128 128 126 122 118 115 112 109 106 104 103 102 102 101 99 96 91 85
132 139 199 216 209 197 180 129 111 117 131 137 122 105 105 117 114 39 47 68 89 139 167 183 180 177 174 166 159 159 153 148 150 151 147 147 150 150 149 150 151 150 145 142 141 142 143 144 140 137 136 134 134 134 135 135 134 133 133 135 136 135 134 131 128 128 129 129 128 126 123 120 118 116 112 107 103 101 97 93 90 84 76 72 76 80
96 289 237 214 204 202 186 136 106 110 125 140 140 118 107 109 105 75 51 55 97 126 141 196 177 159 160 163 160 162 160 152 150 154 154 152 153 153 150 145 144 144 142 139 140 142 143 142 140 137 135 134 135 137 137 137 136 135 135 136 136 135 133 131 130 131 130 128 127 124 122 122 122 118 109 98 86 79 77 80 81 73 60 51 50 56
225 254 233 209 193 161 164 153 124 137 154 170 174 101 64 81 97 89 77 74 143 122 129 175 151 137 151 171 169 165 162 156 155 159 160 157 154 151 145 140 139 139 138 139 141 143 143 141 139 137 135 135 137 139 138 138 138 137 137 138 138 136 135 134 134 133 130 128 127 125 125 125 121 115 110 99 86 75 71 76 84 82 73 66 61 57
238 273 318 246 219 170 146 116 312 265 158 157 164 144 92 85 95 92 100 148 153 122 142 166 154 146 160 173 173 169 161 158 161 162 161 159 152 145 140 139 138 139 140 142 143 143 141 140 138 136 135 136 139 140 139 138 139 139 139 139 140 139 138 136 134 133 132 131 131 131 130 126 120 116 115 111 103 93 83 83 87 87 82 78 75 74
322 12 4 309 283 87 94 76 320 323 35 92 135 142 120 105 109 118 137 148 128 133 163 169 162 163 166 167 175 176 163 159 163 162 159 156 148 140 140 141 142 142 144 144 144 142 140 139 137 136 137 138 140 140 139 138 139 139 139 140 141 141 140 138 135 135 136 135 134 134 132 128 124 122 119 116 114 110 101 92 86 85 83 82 81 82
Height
736 742 740 736 733 731 730 729 729 723 717 718 719 724 723 717 718 713 707 706 710 722 726 723 726 725 715 708 711 713 715 716 722 745 754 741 748 760 763 767 766 768 770 767 769 771 771 773 774 776 779 780 781 782 784 786 788 789 790 791 792 794 796 797 799 801 802 803 804 805 807 808 809 810 811 812 813 814 815 816 817 817 818 819 820 821
733 739 732 727 726 724 726 727 727 724 718 716 716 721 721 716 716 709 705 708 710 720 725 720 723 723 715 710 710 711 715 719 723 739 751 751 759 767 767 771 770 769 770 769 771 771 771 773 774 776 777 778 779 780 782 783 785 787 788 790 792 794 796 798 800 802 804 805 806 808 811 811 812 812 812 813 813 814 815 816 817 817 818 819 820 821
734 733 724 721 722 721 725 724 725 725 720 720 716 718 721 715 713 707 705 712 713 720 724 720 723 722 714 710 709 710 713 717 720 730 749 760 767 771 772 773 773 770 770 770 770 769 771 773 774 775 775 777 778 779 781 781 783 785 786 789 792 795 798 801 803 805 807 808 810 813 815 817 817 815 812 812 814 815 816 816 817 817 818 819 820 821
732 726 718 717 719 721 723 722 725 725 723 723 718 718 719 711 713 712 709 715 715 718 719 717 723 721 713 711 708 707 709 713 723 738 754 762 763 768 770 770 771 772 771 771 771 769 769 771 774 774 775 777 778 779 780 781 782 784 786 789 793 797 801 803 806 807 808 809 810 811 813 816 818 817 812 812 814 815 816 816 816 817 818 819 820 820
722 717 713 715 718 720 721 723 726 727 727 726 718 716 713 707 708 706 707 716 719 720 715 714 726 724 714 715 712 707 705 712 729 747 757 758 758 762 766 767 768 770 771 771 773 772 769 769 772 772 774 775 776 779 780 781 782 784 787 791 795 800 804 807 808 808 807 808 809 809 811 813 815 817 814 812 814 815 815 816 816 817 818 819 819 820
714 709 709 714 717 717 720 723 724 725 729 729 718 710 706 704 705 704 708 719 729 732 718 717 736 735 717 713 714 708 708 716 730 746 756 755 755 759 762 764 764 765 767 768 769 771 769 769 770 771 773 774 774 777 780 782 783 785 788 792 796 800 805 806 806 807 808 810 810 810 812 812 813 816 815 812 814 815 815 816 816 817 818 818 819 820
708 703 706 712 715 717 721 722 719 720 728 729 716 708 705 703 703 707 713 721 733 734 717 715 734 738 723 714 712 707 711 724 731 741 755 756 753 753 754 756 758 760 764 767 768 769 769 769 769 770 772 773 773 776 780 783 784 786 789 792 795 798 801 802 804 806 809 811 813 812 812 812 813 815 815 814 815 815 815 816 817 817 818 819 820 820
701 702 706 709 711 717 721 720 714 715 725 723 708 708 711 705 704 709 715 721 722 719 713 713 721 731 726 711 707 706 713 729 735 737 747 753 753 751 749 751 753 755 760 767 769 768 768 768 768 770 771 772 773 776 781 783 785 787 789 790 792 796 799 802 805 809 811 813 815 815 813 813 814 815 815 815 815 815 816 816 817 818 819 819 820 820
698 702 704 706 710 715 716 713 710 714 722 714 702 708 711 709 708 707 714 720 714 716 723 717 717 734 729 706 702 708 713 726 735 737 741 746 750 750 749 751 751 752 756 763 766 766 767 766 767 769 771 773 775 778 782 784 786 787 788 790 792 794 798 802 805 809 814 816 815 814 814 815 816 815 815 815 815 816 816 817 818 818 819 820 820 821
697 696 695 702 710 713 711 708 706 714 718 706 700 708 711 712 711 709 716 717 715 725 729 717 716 735 734 708 702 710 712 715 721 728 735 739 742 745 747 749 750 751 755 760 763 763 764 765 767 769 771 775 777 780 783 784 786 787 789 792 794 795 798 801 803 808 814 816 814 813 814 816 816 815 814 815 815 816 817 817 819 819 820 820 821 822
691 691 694 704 708 706 706 705 704 709 711 703 703 712 718 718 715 716 718 714 725 736 725 712 711 727 735 713 699 706 708 706 709 716 727 734 737 738 741 746 749 750 756 761 762 761 762 765 767 770 772 776 779 781 783 784 785 788 791 793 795 797 799 800 802 806 811 813 813 814 815 816 815 814 814 814 815 816 817 818 819 820 820 821 822 822
692 696 699 703 704 700 702 704 704 706 706 706 712 719 726 729 725 729 728 725 741 742 719 709 707 720 735 715 694 698 699 698 704 707 716 730 736 735 736 743 747 750 757 760 759 759 762 765 768 770 773 776 779 780 781 783 785 788 791 793 796 798 799 799 802 807 810 813 815 816 816 815 814 814 814 814 815 816 817 818 819 820 820 821 822 823
702 703 700 704 703 696 701 707 708 709 706 709 718 723 732 740 743 747 744 738 743 733 712 708 710 718 724 706 689 692 694 695 699 700 705 716 728 735 740 741 741 746 754 757 756 758 761 765 768 770 773 776 778 779 781 783 785 788 791 793 796 797 798 800 804 810 814 815 816 816 816 815 815 815 815 815 816 817 818 819 820 820 820 821 822 823
711 710 703 707 703 693 698 705 711 713 708 710 718 723 729 737 751 759 749 741 742 730 710 701 709 719 716 702 690 687 690 693 693 695 699 703 713 726 737 740 736 739 749 753 754 757 760 764 767 769 772 775 777 779 781 784 786 789 792 795 796 798 799 804 809 814 816 816 816 816 816 816 816 817 817 817 817 818 819 820 820 821 821 822 823 823
715 719 705 703 700 695 696 695 700 707 707 708 707 710 717 720 737 751 743 739 740 730 715 709 715 720 716 707 693 685 689 693 693 694 695 700 704 711 723 732 735 738 746 750 752 756 759 763 767 770 772 775 776 780 784 788 791 792 794 796 798 800 804 809 812 814 815 816 817 817 817 818 818 818 818 818 819 819 820 820 821 822 822 823 823 824
707 713 696 693 694 692 696 690 690 702 709 708 702 707 713 704 711 730 730 727 731 728 721 719 717 707 706 707 696 691 697 699 701 699 697 703 704 705 715 725 733 739 744 748 751 756 760 763 768 771 773 775 776 779 784 789 794 796 797 799 800 804 808 810 813 815 816 817 818 818 818 818 818 818 818 819 820 820 821 821 822 823 824 824 824 824
704 705 688 692 694 689 694 692 688 697 704 706 708 710 703 691 696 720 730 725 729 735 726 720 719 708 710 716 705 702 707 705 707 707 704 707 706 708 715 722 731 738 745 751 753 757 761 764 768 770 771 773 775 778 781 784 790 796 798 799 802 806 809 811 813 815 816 817 818 818 819 819 818 818 819 819 820 821 821 822 823 823 824 825 825 825
696 699 686 692 701 693 691 693 689 688 691 703 712 705 695 694 694 705 727 734 738 743 726 716 723 720 721 724 713 708 712 710 710 710 709 710 710 712 717 723 730 736 748 757 757 758 762 763 766 768 770 773 776 779 781 782 786 792 795 798 802 806 809 811 813 814 815 816 817 819 819 819 819 819 819 820 821 821 822 823 823 824 825 825 826 826
683 696 696 693 698 696 691 697 699 692 686 692 699 692 694 711 711 705 722 736 742 746 730 717 723 720 714 715 713 713 715 712 711 710 710 711 712 715 718 724 730 738 750 758 758 757 758 760 765 768 772 776 779 780 781 783 786 790 794 797 801 805 808 810 812 813 815 816 817 818 819 820 820 820 821 821 821 822 822 823 824 825 825 826 827 827
676 693 707 697 689 695 697 701 706 702 694 690 690 689 691 703 709 706 711 720 731 742 734 724 726 717 700 697 705 711 709 709 710 709 709 709 711 715 718 724 733 742 749 753 756 757 757 761 766 769 773 776 779 781 781 784 787 790 794 798 801 804 806 809 811 812 814 815 817 818 819 820 820 821 822 822 823 823 823 824 824 825 826 826 827 827
677 690 708 702 690 698 703 698 697 698 700 699 697 697 696 696 697 700 703 705 714 729 733 733 730 712 692 688 696 702 702 704 705 706 707 707 709 714 717 724 735 742 747 751 754 757 759 763 767 770 774 777 779 781 782 785 788 791 795 798 800 803 805 808 810 812 814 815 817 818 819 821 821 822 823 824 824 825 825 825 825 826 826 827 827 828
681 688 703 707 700 702 698 688 685 688 693 697 696 693 694 696 700 712 719 708 701 709 717 727 729 711 695 690 690 693 697 699 700 702 706 706 708 714 719 727 736 742 747 750 753 756 759 763 767 772 776 779 780 782 784 787 789 793 796 798 800 802 804 808 810 813 815 816 818 819 820 822 823 823 824 825 826 826 826 827 827 827 827 827 828 828
678 686 699 705 701 696 689 683 685 686 684 687 692 690 689 690 697 715 725 712 703 702 698 707 720 716 702 693 691 694 693 693 696 699 703 706 711 718 726 733 739 744 747 750 753 756 761 765 769 774 777 780 782 784 786 789 791 794 796 798 799 801 804 807 810 813 816 818 819 820 821 823 824 825 825 826 827 827 828 828 828 828 828 828 828 828
679 688 697 702 697 690 685 683 685 685 683 687 692 690 688 688 690 699 702 699 705 707 700 708 723 721 708 698 697 698 691 690 695 697 703 713 720 726 733 737 742 746 748 751 755 759 764 768 771 775 779 783 785 787 790 791 792 795 798 799 800 801 804 807 810 814 817 819 821 822 823 824 825 826 826 827 828 828 829 829 829 829 829 829 829 829
685 689 693 701 704 703 700 696 696 692 687 688 691 689 686 684 688 695 693 695 706 705 700 713 727 723 711 703 702 700 695 697 700 701 710 721 728 733 737 739 742 746 750 754 759 762 766 769 771 775 780 784 787 790 793 794 795 797 800 801 801 803 805 807 811 815 819 821 823 824 824 825 826 827 827 828 829 829 830 830 830 830 830 830 830 830
686 686 686 695 705 711 711 703 699 695 689 688 688 688 688 685 689 697 701 707 712 704 698 709 721 723 714 707 707 704 704 708 708 711 720 726 731 736 738 740 744 749 754 758 761 764 766 770 773 777 781 785 788 791 794 796 797 800 802 802 804 805 806 807 812 816 819 822 823 824 826 826 827 828 829 829 831 831 831 831 831 831 831 831 831 831
687 684 681 685 690 695 695 687 683 686 691 693 690 689 690 689 687 692 704 713 709 704 705 702 705 718 719 711 710 708 709 713 713 720 730 732 735 739 740 743 747 752 757 759 761 764 767 771 775 780 783 786 789 792 794 797 799 802 804 804 805 806 806 809 813 817 820 822 824 825 827 828 828 829 830 831 832 832 832 832 831 831 831 832 832 832
692 689 680 681 683 678 675 677 680 685 690 692 691 690 689 689 689 692 702 706 699 705 714 701 697 713 718 710 708 708 710 714 718 727 735 735 738 740 742 747 752 755 758 759 761 765 768 773 777 781 785 787 789 792 795 799 802 804 805 805 806 806 807 811 815 818 821 823 825 827 828 829 829 830 831 832 832 833 833 833 832 832 833 833 833 832
691 689 679 681 684 673 668 674 677 681 687 687 687 689 687 688 692 695 699 697 694 705 710 697 694 704 707 706 707 708 712 715 720 730 735 735 739 742 746 751 755 758 760 761 764 767 771 774 777 781 785 787 791 794 797 801 804 806 807 805 805 807 809 812 815 819 822 824 826 828 829 830 830 830 831 832 833 833 833 833 833 834 834 834 833 833
686 687 682 683 686 679 672 671 671 676 683 685 686 687 686 687 689 693 697 694 693 700 700 694 696 697 697 701 704 706 712 715 719 729 735 737 741 744 749 753 756 760 763 764 767 770 773 775 777 782 786 790 793 796 799 803 806 808 807 805 806 808 810 814 817 820 823 825 827 829 830 830 831 831 832 833 833 834 834 834 835 835 835 835 835 835
686 689 685 685 693 689 676 671 675 680 684 686 688 686 686 690 691 693 697 695 696 701 699 698 703 700 695 696 701 707 712 716 723 731 735 738 741 744 749 753 756 760 763 766 770 772 774 777 779 784 788 791 794 796 799 803 805 807 806 805 807 810 812 816 818 820 823 826 828 829 830 830 831 832 833 833 834 834 835 835 836 836 836 836 836 836
689 690 685 688 700 698 684 681 685 685 686 688 690 687 688 692 693 693 695 697 700 704 705 706 709 707 704 702 706 712 715 719 726 732 736 739 741 744 749 752 756 760 763 768 772 774 776 777 781 787 790 792 794 797 800 802 804 805 805 806 809 812 815 818 819 821 824 826 827 828 830 831 831 832 833 834 834 835 836 836 837 837 837 837 837 837
690 690 686 691 701 698 692 692 691 692 700 699 689 682 684 687 689 691 693 694 697 699 705 709 704 700 704 708 711 716 718 721 726 731 736 739 740 744 748 751 755 760 764 770 773 774 776 778 783 789 792 795 797 799 801 802 803 805 806 808 811 814 817 819 820 822 824 825 827 828 830 831 832 833 833 834 835 836 837 837 838 838 838 838 838 838
687 690 687 688 696 697 695 694 697 708 714 704 686 677 678 681 685 691 692 692 693 693 697 700 694 691 698 706 709 713 716 719 724 728 733 735 739 744 747 750 756 761 766 771 772 773 775 780 785 790 793 797 798 799 800 802 804 805 807 810 813 815 817 819 821 823 824 825 827 828 830 831 832 833 834 835 836 837 838 838 839 839 839 839 839 839
688 689 686 686 690 693 695 701 714 722 711 696 688 682 680 680 680 684 687 687 689 692 693 693 693 693 697 700 703 709 713 717 722 727 731 734 739 744 747 752 757 761 765 770 771 773 776 781 786 790 793 796 798 798 800 802 804 806 808 811 814 816 818 820 821 823 824 825 827 828 830 831 832 834 835 836 837 838 839 839 839 840 840 839 840 840
688 689 686 686 687 694 704 711 717 716 703 695 694 689 686 687 685 687 691 686 683 688 692 692 692 695 699 701 703 709 713 717 723 728 732 736 739 742 747 753 758 761 765 768 771 774 778 781 785 789 793 795 797 799 801 802 804 806 808 812 814 816 819 820 821 823 824 826 827 828 831 832 833 835 836 837 838 838 839 840 840 840 841 841 842 842
685 688 688 688 687 693 705 708 704 706 706 702 699 692 688 689 689 694 698 691 681 683 689 691 691 694 701 705 707 711 716 722 730 735 735 736 740 743 748 753 756 760 764 767 770 774 778 781 784 789 792 794 796 799 801 802 805 807 809 813 815 817 819 820 822 823 825 826 827 829 831 832 833 835 836 837 838 839 840 841 841 841 842 842 843 844
681 684 687 692 691 689 698 706 705 708 710 703 696 690 687 686 684 688 698 698 689 685 686 688 689 693 701 707 710 715 721 728 735 738 736 736 740 744 749 753 755 759 763 766 769 773 778 782 785 788 791 794 797 799 801 803 805 807 810 813 815 817 819 820 822 824 825 826 828 830 832 833 834 835 837 838 839 840 841 841 842 843 843 844 845 845
682 683 684 692 697 695 702 708 705 705 708 704 695 688 688 689 683 687 704 704 688 682 686 686 687 693 701 707 711 715 722 727 730 732 733 734 738 742 748 753 756 760 763 765 768 773 778 782 786 789 791 795 798 800 801 803 805 807 811 814 816 817 819 821 823 825 826 828 829 831 833 834 835 836 838 839 840 841 841 842 843 844 844 845 845 846
690 689 688 695 699 700 704 704 697 698 703 701 694 689 688 687 685 698 717 706 680 676 684 684 685 692 699 705 710 714 716 716 717 723 728 733 738 743 748 754 757 760 763 767 771 776 780 783 786 790 793 796 799 800 802 804 806 809 813 815 817 819 821 823 825 826 828 830 831 833 834 835 837 838 839 840 841 842 843 843 844 845 845 845 846 846
696 693 693 697 697 697 703 702 696 697 699 692 688 688 688 690 697 708 713 698 680 678 681 681 684 690 696 703 706 708 708 704 707 717 726 732 740 746 750 755 759 762 765 769 774 778 780 784 787 791 794 797 799 802 804 807 809 812 815 817 819 821 823 825 827 828 830 832 833 834 836 837 838 839 840 841 843 844 844 845 845 845 845 846 847 847
699 698 696 698 697 695 698 698 697 701 699 690 687 688 688 696 707 706 698 690 686 683 680 680 684 688 695 702 703 704 705 705 709 718 726 733 741 748 752 756 760 764 768 772 775 778 780 783 788 792 795 798 800 803 806 808 811 813 816 818 821 823 825 827 829 830 832 833 835 835 837 838 840 841 842 843 844 845 845 845 846 846 846 847 848 848
692 695 695 693 692 693 696 699 703 704 697 689 692 695 694 698 702 696 690 690 689 684 681 682 686 690 697 703 703 703 705 709 716 724 730 736 742 749 755 758 760 765 769 773 777 780 781 784 788 793 796 799 801 804 806 808 811 813 816 819 821 824 826 828 829 831 832 834 835 836 838 840 841 843 844 844 845 845 846 846 846 846 847 848 848 848
687 687 690 687 683 688 697 700 700 695 689 688 694 697 697 696 694 693 692 691 690 688 685 684 688 693 698 701 703 704 707 713 720 728 734 739 743 749 755 759 762 766 769 772 776 780 782 785 789 792 796 799 802 805 807 809 811 814 816 819 822 824 826 828 830 831 833 834 836 837 839 841 842 844 844 845 846 846 846 846 847 847 847 847 848 848
688 686 691 689 680 682 691 694 691 688 686 688 692 693 695 695 694 694 693 692 692 692 689 688 692 696 699 703 705 707 711 717 724 729 735 741 745 750 755 759 763 767 769 772 776 779 782 785 789 792 796 800 803 805 807 810 812 814 817 820 822 824 826 828 830 832 833 835 837 839 841 842 843 844 845 846 846 846 847 847 847 847 848 848 848 848
684 684 691 691 684 683 687 688 687 688 689 690 693 695 696 696 696 695 695 695 695 694 692 694 696 697 700 705 708 710 714 720 726 732 738 743 747 751 755 760 764 767 769 772 775 778 782 787 791 794 797 800 804 806 808 811 813 815 818 820 823 825 827 829 831 832 834 836 838 840 841 842 843 845 845 846 847 847 848 848 848 848 848 848 849 849
681 682 686 688 686 690 692 688 685 689 692 692 693 696 696 697 697 696 695 697 697 696 696 696 697 698 701 704 709 713 717 721 728 735 740 745 749 752 756 760 763 766 769 772 774 778 783 787 791 794 797 800 804 806 809 812 814 816 819 821 823 826 828 830 831 833 835 837 838 840 841 842 844 845 846 847 848 848 849 849 849 849 849 849 850 850
687 686 686 684 685 693 698 693 689 691 693 693 693 693 694 697 698 697 697 697 697 697 698 697 697 700 703 707 712 715 717 722 729 736 740 745 749 754 757 760 763 766 769 772 775 779 783 787 790 794 797 800 804 808 810 813 815 817 819 822 824 826 828 830 832 834 835 837 839 840 842 843 844 845 846 848 849 849 850 850 851 851 851 851 851 851
693 689 684 681 687 697 700 696 694 695 695 695 695 695 695 697 698 698 699 698 697 698 700 700 699 703 708 712 714 716 719 724 730 736 740 744 748 753 757 759 762 766 770 773 777 780 784 787 791 794 798 801 805 808 811 813 815 818 820 822 825 827 829 831 833 834 836 837 839 841 842 844 845 846 848 850 851 851 851 851 852 852 853 853 853 852
689 690 688 686 693 703 704 702 702 700 696 694 695 697 699 699 698 700 701 699 698 700 703 704 704 707 711 714 715 717 721 726 731 737 741 744 747 751 755 758 762 767 770 774 778 782 785 789 792 795 799 803 806 809 811 813 816 818 820 823 826 828 830 831 833 834 836 838 839 841 842 844 846 847 849 851 852 853 853 854 854 854 854 855 855 855
691 696 699 697 699 703 703 703 703 700 696 694 695 698 700 699 699 701 701 700 700 703 705 706 708 711 714 716 718 719 722 727 733 737 741 744 747 750 754 758 762 766 771 775 779 782 786 790 794 797 800 804 807 810 812 814 816 818 821 824 826 828 830 831 832 834 836 838 840 841 842 844 846 848 849 851 853 854 855 856 856 856 856 856 857 857